Flag for Ukraine Weather past 2 weeks in Kyiv, Ukraine

Now
32 °F

Light snow. Ice fog.


Feels Like: 25 °F
Forecast: 33 / 46 °F
Wind: 8 mph from Southeast

Location: Kyiv

Current Time: Jan 30, 2015 at 3:14:42 AM

Latest Report: Jan 30, 2015 at 2:30 AM


Visibility: 2 mi

Pressure: 29.53 "Hg

Humidity: 100%

Dew point: 32 °F

Location of KyivLocation

Historic Weather in Kyiv — Graph

°F

Kyiv temperature yesterday

Maximum temperature yesterday: 36 °F (at 12:30 PM)
Minimum temperature yesterday: 28 °F (at 1:00 AM)
Average temperature yesterday: 31 °F

Past Weeks' High & Low Weather Summary

 TemperatureHumidityPressure
High37 °F (Jan 15, 11:00 AM)100% (Jan 15, 4:30 AM)30.27 "Hg (Jan 15, 4:30 AM)
Low23 °F (Jan 16, 3:30 AM)80% (Jan 29, 5:30 PM)29.56 "Hg (Jan 30, 1:00 AM)
Average31 °F97%30.07 "Hg
* Reported Jan 15 2:00 AM — Jan 30 2:00 AM, Kyiv, Weather by CustomWeather, © 2014

Note: Actual official high and low records may vary slightly from our data, if they occured in-between our weather recording intervals... More about our weather records

Advertising

Kyiv weather history for previous 24 hours

 ConditionsComfort  
Time TempWeatherWind HumidityBarometerVisibility
2:00 AM
Jan 30
32 °FLight snow. Ice fog.6 mph100%29.56 "Hg1 mi
1:30 AM32 °FLight snow. Ice fog.6 mph100%29.56 "Hg1 mi
1:00 AM32 °FLight snow. Ice fog.6 mph100%29.56 "Hg2 mi
12:30 AM32 °FLight snow. Ice fog.8 mph100%29.59 "Hg2 mi
12:00 AM32 °FLight snow. Ice fog.8 mph100%29.59 "Hg2 mi
11:30 PM
Jan 29
32 °FLight snow. Ice fog.6 mph93%29.59 "Hg2 mi
11:00 PM32 °FIce fog.6 mph93%29.59 "Hg3 mi
10:30 PM30 °FLow clouds.6 mph93%29.59 "Hg6 mi
10:00 PM30 °FLow clouds.8 mph93%29.59 "HgN/A
9:30 PM30 °FLow clouds.6 mph93%29.62 "HgN/A
9:00 PM30 °FOvercast.8 mph86%29.62 "HgN/A
8:30 PM32 °FOvercast.6 mph87%29.62 "HgN/A
8:00 PM32 °FPassing clouds.8 mph87%29.62 "HgN/A
7:30 PM32 °FPassing clouds.6 mph87%29.62 "HgN/A
7:00 PM32 °FPassing clouds.6 mph87%29.62 "HgN/A
6:30 PM32 °FPassing clouds.8 mph80%29.65 "HgN/A
6:00 PM32 °FPassing clouds.6 mph80%29.65 "HgN/A
5:30 PM32 °FPassing clouds.8 mph80%29.65 "HgN/A
5:00 PM34 °FPassing clouds.6 mph81%29.65 "HgN/A
4:30 PM34 °FPartly sunny.6 mph81%29.65 "HgN/A
4:00 PM34 °FPartly sunny.6 mph81%29.65 "HgN/A
3:30 PM36 °FPartly sunny.8 mph81%29.65 "HgN/A
3:00 PM36 °FPartly sunny.6 mph81%29.65 "HgN/A
2:30 PM36 °FPartly sunny.6 mph81%29.65 "HgN/A
2:00 PM36 °FScattered clouds.8 mph81%29.65 "HgN/A
1:30 PM36 °FScattered clouds.10 mph81%29.65 "HgN/A
1:00 PM36 °FPartly sunny.8 mph81%29.65 "HgN/A
12:30 PM36 °FBroken clouds.8 mph81%29.68 "HgN/A
12:00 PM34 °FBroken clouds.8 mph81%29.71 "HgN/A
11:30 AM32 °FBroken clouds.6 mph87%29.71 "HgN/A
11:00 AM32 °FBroken clouds.3 mph87%29.71 "HgN/A
10:30 AM30 °FBroken clouds.6 mph93%29.74 "Hg6 mi
10:00 AM30 °FLow clouds.6 mph93%29.74 "Hg4 mi
9:30 AM28 °FIce fog.3 mph100%29.74 "Hg2 mi
9:00 AM28 °FIce fog.3 mph100%29.74 "Hg1 mi
8:30 AM28 °FIce fog.3 mph100%29.74 "Hg2 mi
8:00 AM28 °FIce fog.6 mph100%29.77 "Hg2 mi
7:30 AM28 °FIce fog.1 mph100%29.74 "Hg2 mi
7:00 AM28 °FIce fog.6 mph100%29.77 "Hg2 mi
6:30 AM30 °FIce fog.3 mph93%29.77 "Hg2 mi
6:00 AM30 °FIce fog.3 mph93%29.77 "Hg3 mi
5:30 AM30 °FIce fog.3 mph93%29.77 "Hg3 mi
5:00 AM30 °FIce fog.3 mph93%29.77 "Hg3 mi
4:30 AM30 °FIce fog.3 mph93%29.77 "Hg3 mi
4:00 AM30 °FIce fog.3 mph93%29.80 "Hg3 mi
3:30 AM30 °FIce fog.1 mph93%29.80 "Hg3 mi
3:00 AM30 °FIce fog.6 mph93%29.80 "Hg3 mi
Weather by CustomWeather, © 2014

See weather overviewHow to use our weather pages